Regional Weather Roundup
Issued by NWS Mobile, AL

Current Version | Previous Version | Text Only | Print | Product List | Glossary On
Versions: 1 2 3 4 5 6 7 8 9 10 11 12 13 14 15 16 17 18 19 20 21 22 23 24 25 26 27
000
ASUS44 KMOB 040711
RWRMOB
REGIONAL WEATHER ROUNDUP
NATIONAL WEATHER SERVICE MOBILE AL
200 AM CDT TUE OCT 04 2022

NOTE: "FAIR" INDICATES FEW OR NO CLOUDS BELOW 12,000 FEET WITH NO
      SIGNIFICANT WEATHER AND/OR OBSTRUCTIONS TO VISIBILITY.

  * THESE STATIONS ARE PART OF THE UNIVERSITY OF SOUTH ALABAMA
    MESONET AND ARE NOT UNDER NWS OR FAA QUALITY CONTROL.

ALZ061>064-040800-
COASTAL ALABAMA

CITY           SKY/WX    TMP DP  RH WIND       PRES   REMARKS
MOBILE REG APT PTCLDY    64  58  80 N3        30.06S
BROOKLEY FIELD PTCLDY    64  59  83 NW5       30.07S
USA CAMPUS*    NOT AVBL
DOG RIVER*     NOT AVBL


CITY           SKY/WX    TMP DP  RH WIND       PRES   REMARKS
GULF SHORES    PTCLDY    66  59  77 NE7       30.05R

$$

ALZ051>060-040800-
INTERIOR SOUTHWEST AND SOUTH CENTRAL ALABAMA

CITY           SKY/WX    TMP DP  RH WIND       PRES   REMARKS
GREENVILLE     CLEAR     56  53  90 CALM      30.08
EVERGREEN      CLEAR     55  52  89 CALM      30.08S
ATMORE*          N/A     57  55  94 CALM      30.06S
ANDALUSIA/OPP  NOT AVBL
ANDALUSIA*       N/A     61  55  82 E8        30.08S
FLORALA APT    NOT AVBL
FLORALA*       NOT AVBL

$$

FLZ001>006-040800-
WESTERN FLORIDA PANHANDLE

CITY           SKY/WX    TMP DP  RH WIND       PRES   REMARKS
PENSACOLA      CLEAR     68  59  73 E8        30.06S
NAS PENSACOLA  NOT AVBL
MILTON         NOT AVBL
WHTNG S FIELD  CLEAR     63  56  78 E8        30.07S


CITY           SKY/WX    TMP DP  RH WIND       PRES   REMARKS
JAY*           NOT AVBL
DUKE FIELD     CLEAR     61  54  77 CALM      30.07S
CRESTVIEW      CLEAR     57  54  89 CALM      30.09S
VALPARAISO     CLEAR     64  55  72 E6        30.04S
DESTIN         CLEAR     68  55  63 E9        30.06S

$$

MSZ076-079-040800-
INTERIOR SOUTHEAST MISSISSIPPI

CITY           SKY/WX    TMP DP  RH WIND       PRES   REMARKS
LEAKESVILLE*   NOT AVBL
AGRICOLA*        N/A     63  59  88 CALM      30.06

$$

MARINE OBSERVATIONS

STATION/POSITION TIME  TEMP    WIND        PRES    WAVE
                       AIR SEA DIR/SP/G            HT/PER
                 (UTC) (F)     (DEG/KT/KT) (MB)    (FT/S)
PETIT BOIS ISLND 0624   71      30/ 12/ 15 1016.8
E DAUPHIN ISLAND NOT AVBL
USCG MOBILE BAY  0624   68 74   10/  4/  5 1017.6
STATE DOCKS      0624   68 77              1016.3
WEEKS BAY        0545   61                 1018.0F
FORT MORGAN      0624   72        CALM     1017.2
12 S ORANGE BCH  0650   76 81   70/ 14/ 17 1016.8F   1/ 5
PENSACOLA BAY    0624   70 75   70/  2/  9 1017.8
64 S DAUPHIN ISL 0650   77 82   50/  8/ 12 1017.2F   2/ 5

$$

SELECTED LOCATIONS ACROSS THE REGION

CITY           SKY/WX    TMP DP  RH WIND       PRES   REMARKS
NEW ORLEANS    PTCLDY    72  62  71 NE5       30.06S
GULFPORT       PTCLDY    66  59  78 CALM      30.05S
PASCAGOULA AP  PTCLDY    60  59  96 CALM      30.06S
PASCAGOULA*    NOT AVBL
HATTIESBURG    CLEAR     59  58  96 CALM      30.08S
LAUREL         CLEAR     58  56  93 CALM      30.08F
MERIDIAN       CLEAR     57  56  96 N3        30.09S
JACKSON        CLEAR     57  55  93 CALM      30.09F
MONTGOMERY     CLEAR     58  56  93 CALM      30.09F
TROY           NOT AVBL
ASHFORD*         N/A     61  55  82 E8        30.08S
DOTHAN         CLEAR     54  52  93 CALM      30.12F
PANAMA CITY    CLEAR     60  53  77 E5        30.07S

$$




USA.gov is the U.S. government's official web portal to all federal, state and local government web resources and services.